TimeCST,TemperatureF,Dew PointF,Humidity,Sea Level PressureIn,VisibilityMPH,Wind Direction,Wind SpeedMPH,Gust SpeedMPH,PrecipitationIn,Events,Conditions,WindDirDegrees,DateUTC
12:15 AM,33.8,28.4,81,30.27,10.0,NE,8.1,-,N/A,,Overcast,50,2013-02-09 06:15:00
12:35 AM,33.8,28.4,81,30.27,10.0,NNE,8.1,-,N/A,,Overcast,20,2013-02-09 06:35:00
12:55 AM,33.8,28.4,81,30.27,10.0,NNE,5.8,-,N/A,,Overcast,30,2013-02-09 06:55:00
1:15 AM,33.8,26.6,75,30.27,10.0,NNE,9.2,-,N/A,,Overcast,30,2013-02-09 07:15:00
1:35 AM,33.8,28.4,81,30.26,10.0,NNE,8.1,-,N/A,,Overcast,30,2013-02-09 07:35:00
1:55 AM,33.8,28.4,81,30.27,10.0,NE,5.8,-,N/A,,Overcast,40,2013-02-09 07:55:00
2:15 AM,33.8,28.4,81,30.27,10.0,NE,6.9,-,N/A,,Overcast,50,2013-02-09 08:15:00
2:35 AM,33.8,26.6,75,30.28,10.0,ENE,10.4,-,N/A,,Overcast,60,2013-02-09 08:35:00
2:55 AM,33.8,26.6,75,30.28,10.0,NE,5.8,-,N/A,,Overcast,50,2013-02-09 08:55:00
3:15 AM,33.8,26.6,75,30.27,10.0,NE,6.9,-,N/A,,Overcast,40,2013-02-09 09:15:00
3:35 AM,33.8,26.6,75,30.27,10.0,ENE,10.4,-,N/A,,Overcast,60,2013-02-09 09:35:00
3:55 AM,33.8,26.6,75,30.27,10.0,ENE,10.4,-,N/A,,Overcast,60,2013-02-09 09:55:00
4:15 AM,32.0,26.6,80,30.28,10.0,NE,10.4,-,N/A,,Overcast,50,2013-02-09 10:15:00
4:35 AM,32.0,26.6,80,30.27,10.0,ENE,5.8,-,N/A,,Overcast,60,2013-02-09 10:35:00
4:55 AM,32.0,26.6,80,30.28,10.0,ENE,9.2,-,N/A,,Overcast,60,2013-02-09 10:55:00
5:15 AM,32.0,26.6,80,30.27,10.0,ENE,8.1,-,N/A,,Mostly Cloudy,60,2013-02-09 11:15:00
5:35 AM,32.0,26.6,80,30.27,10.0,ENE,6.9,-,N/A,,Mostly Cloudy,60,2013-02-09 11:35:00
5:55 AM,30.2,26.6,86,30.29,10.0,NE,3.5,-,N/A,,Mostly Cloudy,40,2013-02-09 11:55:00
6:15 AM,30.2,26.6,86,30.30,10.0,NNE,3.5,-,N/A,,Mostly Cloudy,20,2013-02-09 12:15:00
6:35 AM,28.4,24.8,86,30.30,10.0,North,5.8,-,N/A,,Partly Cloudy,360,2013-02-09 12:35:00
6:55 AM,30.2,26.6,86,30.31,10.0,NNE,4.6,-,N/A,,Clear,20,2013-02-09 12:55:00
7:15 AM,30.2,26.6,86,30.32,10.0,NNE,4.6,-,N/A,,Clear,20,2013-02-09 13:15:00
7:35 AM,30.2,26.6,86,30.33,10.0,NNE,4.6,-,N/A,,Clear,20,2013-02-09 13:35:00
7:55 AM,32.0,26.6,80,30.33,10.0,NNE,5.8,-,N/A,,Clear,30,2013-02-09 13:55:00
8:15 AM,33.8,26.6,75,30.33,10.0,ENE,4.6,-,N/A,,Clear,60,2013-02-09 14:15:00
8:35 AM,33.8,26.6,75,30.33,10.0,NNE,5.8,-,N/A,,Clear,30,2013-02-09 14:35:00
8:55 AM,35.6,26.6,70,30.33,10.0,NE,5.8,-,N/A,,Clear,50,2013-02-09 14:55:00
9:15 AM,35.6,26.6,70,30.32,10.0,SE,3.5,-,N/A,,Clear,130,2013-02-09 15:15:00
9:35 AM,37.4,26.6,65,30.32,10.0,Calm,Calm,-,N/A,,Clear,0,2013-02-09 15:35:00
9:55 AM,37.4,26.6,65,30.32,10.0,Calm,Calm,-,N/A,,Clear,0,2013-02-09 15:55:00
10:15 AM,39.2,26.6,61,30.32,10.0,ENE,3.5,-,N/A,,Clear,60,2013-02-09 16:15:00
10:35 AM,41.0,26.6,57,30.31,10.0,East,5.8,-,N/A,,Clear,100,2013-02-09 16:35:00
10:55 AM,42.8,26.6,53,30.31,10.0,East,3.5,-,N/A,,Clear,80,2013-02-09 16:55:00
11:15 AM,42.8,26.6,53,30.30,10.0,Calm,Calm,-,N/A,,Clear,0,2013-02-09 17:15:00
11:35 AM,46.4,28.4,50,30.29,10.0,East,5.8,-,N/A,,Clear,90,2013-02-09 17:35:00
11:55 AM,46.4,26.6,46,30.28,10.0,ENE,4.6,-,N/A,,Clear,60,2013-02-09 17:55:00
12:15 PM,48.2,26.6,43,30.27,10.0,NE,6.9,-,N/A,,Clear,50,2013-02-09 18:15:00
12:35 PM,51.8,26.6,38,30.25,10.0,ENE,3.5,-,N/A,,Clear,70,2013-02-09 18:35:00
12:55 PM,51.8,26.6,38,30.24,10.0,East,3.5,-,N/A,,Clear,80,2013-02-09 18:55:00
1:15 PM,53.6,26.6,35,30.24,10.0,Variable,3.5,-,N/A,,Clear,0,2013-02-09 19:15:00
1:35 PM,55.4,21.2,26,30.23,10.0,SSE,5.8,-,N/A,,Clear,150,2013-02-09 19:35:00
1:55 PM,55.4,21.2,26,30.22,10.0,Variable,5.8,-,N/A,,Clear,0,2013-02-09 19:55:00
2:15 PM,57.2,21.2,25,30.21,10.0,East,5.8,-,N/A,,Clear,90,2013-02-09 20:15:00
2:35 PM,57.2,21.2,25,30.21,10.0,ESE,9.2,-,N/A,,Clear,120,2013-02-09 20:35:00
2:55 PM,57.2,23.0,27,30.21,10.0,Variable,4.6,-,N/A,,Clear,0,2013-02-09 20:55:00
3:15 PM,57.2,24.8,29,30.20,10.0,SSE,6.9,-,N/A,,Clear,150,2013-02-09 21:15:00
3:35 PM,57.2,24.8,29,30.20,10.0,SSE,6.9,-,N/A,,Clear,150,2013-02-09 21:35:00
3:55 PM,57.2,26.6,31,30.20,10.0,SSE,5.8,-,N/A,,Clear,150,2013-02-09 21:55:00
4:15 PM,57.2,24.8,29,30.20,10.0,SE,5.8,-,N/A,,Clear,140,2013-02-09 22:15:00
4:35 PM,57.2,24.8,29,30.20,10.0,SE,6.9,-,N/A,,Clear,140,2013-02-09 22:35:00
4:55 PM,55.4,24.8,31,30.19,10.0,SE,3.5,-,N/A,,Clear,140,2013-02-09 22:55:00
5:15 PM,55.4,24.8,31,30.19,10.0,Calm,Calm,-,N/A,,Clear,0,2013-02-09 23:15:00
5:35 PM,53.6,26.6,35,30.20,10.0,Calm,Calm,-,N/A,,Clear,0,2013-02-09 23:35:00
5:55 PM,46.4,30.2,53,30.20,10.0,Calm,Calm,-,N/A,,Clear,0,2013-02-09 23:55:00
6:15 PM,46.4,28.4,50,30.19,10.0,Calm,Calm,-,N/A,,Clear,0,2013-02-10 00:15:00
6:35 PM,48.2,26.6,43,30.19,10.0,Calm,Calm,-,N/A,,Clear,0,2013-02-10 00:35:00
6:55 PM,48.2,24.8,40,30.19,10.0,ESE,3.5,-,N/A,,Clear,120,2013-02-10 00:55:00
7:35 PM,48.2,21.2,34,30.18,10.0,SE,4.6,-,N/A,,Clear,130,2013-02-10 01:35:00
7:55 PM,48.2,21.2,34,30.18,10.0,SE,4.6,-,N/A,,Clear,130,2013-02-10 01:55:00
8:15 PM,48.2,19.4,32,30.19,10.0,SSE,4.6,-,N/A,,Clear,150,2013-02-10 02:15:00
8:35 PM,48.2,23.0,37,30.19,10.0,SE,5.8,-,N/A,,Clear,140,2013-02-10 02:35:00
8:55 PM,48.2,24.8,40,30.19,10.0,SE,4.6,-,N/A,,Clear,130,2013-02-10 02:55:00
9:15 PM,48.2,24.8,40,30.18,10.0,ESE,3.5,-,N/A,,Clear,120,2013-02-10 03:15:00
9:35 PM,48.2,26.6,43,30.18,10.0,SE,3.5,-,N/A,,Clear,130,2013-02-10 03:35:00
9:55 PM,48.2,26.6,43,30.17,10.0,SE,4.6,-,N/A,,Clear,140,2013-02-10 03:55:00
10:15 PM,48.2,26.6,43,30.17,10.0,SE,4.6,-,N/A,,Clear,130,2013-02-10 04:15:00
10:35 PM,48.2,26.6,43,30.17,10.0,SE,6.9,-,N/A,,Clear,130,2013-02-10 04:35:00
10:55 PM,48.2,26.6,43,30.17,10.0,SE,8.1,-,N/A,,Clear,140,2013-02-10 04:55:00
11:15 PM,50.0,26.6,40,30.16,10.0,SE,9.2,-,N/A,,Clear,140,2013-02-10 05:15:00
11:35 PM,50.0,26.6,40,30.16,10.0,SSE,8.1,-,N/A,,Clear,150,2013-02-10 05:35:00
11:55 PM,50.0,26.6,40,30.16,10.0,SSE,9.2,-,N/A,,Clear,150,2013-02-10 05:55:00